Lapse_Rate
5.0 4.3 3.9 3.8 3.5 3.3 2.9 3.0 3.1 3.5 4.1 4.4 4.5 4.6 4.7 4.8 4.8 4.9 4.8 4.8 4.8 4.6 4.7 4.2 4.1 3.9 4.0 3.8 3.9 3.6 4.0 4.0 4.1 4.2 4.2 4.6 4.6 5.0 5.2 5.2 5.3 5.4 5.3 5.2 5.2 5.2 5.3 6.1 6.2 6.3 6.2 5.6 5.9 5.4
4.7 4.4 4.0 3.9 3.8 3.4 3.2 3.4 3.8 4.2 4.3 4.5 4.9 4.9 4.8 4.8 4.9 5.0 4.9 4.7 4.7 4.6 4.2 4.1 4.0 4.0 3.9 3.9 4.1 3.9 4.1 3.8 3.8 4.1 4.4 4.3 4.7 4.4 4.7 4.4 5.0 5.1 5.4 5.2 5.4 5.3 5.3 5.4 5.2 5.7 6.0 5.9 5.7 5.4
4.8 4.3 4.2 4.0 3.9 3.9 3.6 3.4 3.8 4.4 4.5 4.5 4.9 4.8 4.6 4.6 4.7 4.6 4.5 4.4 4.3 4.0 3.9 3.8 3.9 4.1 4.2 4.1 4.2 4.2 4.1 3.9 4.0 3.8 3.9 4.0 4.0 4.0 4.0 4.2 4.3 4.6 5.1 4.8 4.9 5.1 5.7 5.1 4.8 4.5 5.3 6.1 5.3 4.3
4.7 4.6 4.4 4.2 3.9 3.5 3.6 4.0 4.3 4.2 4.6 4.7 4.7 4.7 4.7 4.7 4.4 4.2 3.9 3.8 3.6 3.6 3.7 3.9 4.2 4.3 4.2 4.3 4.0 4.0 4.2 3.9 3.9 3.9 3.7 3.7 3.8 4.0 4.1 4.2 4.1 4.3 4.5 4.7 4.6 4.6 5.5 6.3 6.2 6.1 5.9 5.5 5.0 4.4
4.7 4.7 4.5 3.8 3.7 3.8 3.8 4.1 4.5 4.6 4.7 4.8 4.8 4.8 4.6 4.1 4.0 3.8 3.6 3.5 3.5 3.9 3.8 4.2 4.2 4.2 4.2 4.1 4.0 4.0 4.0 4.0 4.0 3.9 4.0 4.0 4.3 4.8 4.5 4.1 3.8 4.5 4.3 4.3 4.5 4.9 4.4 4.2 5.0 5.3 5.1 5.0 5.0 4.3
4.8 4.6 4.3 4.1 4.3 4.1 4.5 4.5 4.6 4.8 4.7 4.7 4.5 4.3 4.0 3.9 3.7 3.5 3.7 3.9 4.0 3.9 4.0 4.4 4.4 4.3 4.4 4.2 4.1 4.2 4.2 4.3 4.3 4.5 4.7 5.0 5.9 5.5 4.4 4.2 4.7 6.1 5.4 4.8 4.2 4.1 3.9 3.7 3.7 4.0 3.9 4.1 4.3 4.9
4.3 4.3 4.2 4.4 4.5 4.6 4.6 4.5 4.5 4.4 4.3 4.2 4.1 3.8 3.6 3.6 3.6 3.9 4.0 4.1 4.1 4.1 4.1 4.2 4.6 4.6 4.3 4.4 4.4 4.6 4.7 5.0 5.3 5.4 5.6 6.0 6.3 6.4 5.4 5.1 7.7 6.4 5.2 4.8 4.6 4.1 3.9 3.8 3.4 3.4 4.0 4.1 4.1 3.9
4.6 4.6 4.7 4.7 4.6 4.5 4.5 4.3 4.2 4.1 4.0 3.9 3.8 3.7 3.7 3.9 4.1 4.2 4.3 4.3 4.2 4.3 4.2 4.3 4.5 4.6 4.8 4.8 5.1 5.4 5.6 5.9 6.1 6.2 6.5 6.6 6.6 6.9 6.5 7.9 7.2 7.0 6.6 6.3 5.7 4.9 4.0 4.0 4.1 4.1 4.2 4.4 4.1 3.4
4.6 4.6 4.7 4.6 4.5 4.4 4.2 4.0 3.9 3.8 3.7 3.8 3.9 4.1 4.4 4.4 4.4 4.4 4.4 4.4 4.5 4.4 4.5 4.7 4.7 5.0 5.4 5.8 5.9 6.0 6.0 6.2 6.5 6.9 7.0 6.3 6.6 6.4 6.9 6.7 6.6 6.6 6.5 6.5 6.4 6.0 5.6 4.6 4.3 4.6 4.7 4.7 4.0 4.1
4.8 4.8 4.6 4.4 4.2 4.0 3.9 3.9 3.9 3.9 4.0 4.3 4.3 4.4 4.5 4.5 4.4 4.5 4.7 4.8 4.9 5.0 5.5 5.8 6.0 6.2 6.2 6.1 6.1 6.2 6.4 6.5 6.5 6.6 6.4 6.2 6.4 6.1 6.1 5.7 5.9 6.1 6.0 5.8 5.8 6.3 6.4 5.8 5.2 4.8 4.8 4.1 4.4 4.0
4.7 4.4 4.2 4.0 3.9 3.9 4.0 4.0 4.2 4.3 4.4 4.6 4.6 4.6 4.5 4.6 4.7 4.7 4.9 5.1 5.5 6.0 6.4 6.7 6.7 6.5 6.4 6.5 6.5 6.5 6.5 6.5 6.3 6.3 6.2 6.2 6.2 6.5 6.4 6.3 6.5 6.1 5.7 5.8 5.7 6.0 6.2 6.6 6.4 5.5 5.1 4.8 4.4 4.2
4.3 4.0 3.9 4.0 4.2 4.2 4.2 4.3 4.5 4.5 4.5 4.5 4.6 4.6 4.6 4.7 4.8 5.0 5.5 6.0 6.4 6.6 6.9 7.0 6.9 6.6 6.8 6.7 6.6 6.5 6.3 6.2 6.2 6.1 6.2 6.3 6.6 6.2 5.9 6.0 6.2 6.0 5.7 5.8 6.0 6.4 6.7 7.0 7.2 6.4 5.8 5.4 4.9 4.8
4.3 4.3 4.3 4.3 4.4 4.4 4.4 4.5 4.6 4.6 4.7 4.7 4.7 4.7 4.8 5.1 5.6 6.0 6.4 6.7 6.9 6.9 6.9 6.9 6.8 7.0 6.7 6.4 6.3 6.1 6.1 6.2 6.0 6.1 6.4 6.2 6.0 6.3 6.3 6.0 5.9 5.8 5.7 5.9 6.2 6.3 6.5 7.2 7.6 7.4 6.6 5.9 5.8 5.5
4.7 4.6 4.7 4.7 4.7 4.7 4.7 4.7 4.7 4.7 4.8 4.8 5.1 5.4 5.7 6.2 6.6 6.9 6.9 7.0 6.9 6.8 6.8 6.9 7.0 6.7 6.6 6.3 6.2 5.9 6.0 5.9 6.2 6.4 6.4 6.2 6.4 6.1 5.5 5.5 5.5 5.7 5.9 6.0 6.2 6.3 6.8 7.3 7.4 7.4 7.2 6.7 6.2 5.9
4.8 4.8 4.9 4.9 4.9 4.8 4.8 4.9 4.9 5.0 5.2 5.7 6.2 6.6 6.9 7.1 7.2 7.2 7.0 7.0 6.8 6.8 6.9 7.0 6.9 6.5 6.4 6.2 6.1 6.1 6.1 6.4 6.6 6.4 6.2 6.1 5.8 5.1 5.3 5.4 5.5 5.7 6.1 6.1 6.3 6.4 6.8 7.1 7.2 7.2 7.4 7.2 6.8 6.4
5.0 5.0 5.0 4.9 4.9 4.8 5.0 5.1 5.4 5.9 6.4 6.8 7.3 7.6 7.5 7.4 7.4 7.3 7.1 6.9 6.8 6.8 6.9 6.8 6.6 6.4 6.2 6.2 6.3 6.4 6.4 6.7 6.6 6.3 5.9 5.3 5.1 5.0 5.2 5.4 5.5 5.8 5.9 6.1 6.4 6.5 6.7 6.8 6.8 7.0 7.2 7.2 7.2 7.0
5.0 4.9 5.0 5.0 5.2 5.3 5.6 6.0 6.4 6.8 7.3 7.6 7.8 7.8 7.5 7.5 7.3 7.0 6.9 6.6 6.6 6.6 6.6 6.4 6.2 6.3 6.5 6.2 6.3 6.4 6.4 6.4 6.2 5.9 5.4 5.1 5.0 5.2 5.2 5.3 5.5 5.8 5.9 6.1 6.3 6.3 6.6 6.8 6.8 7.1 7.2 7.3 7.6 7.7
5.1 5.2 5.4 5.6 5.9 6.2 6.4 6.8 7.1 7.4 7.8 8.0 7.9 7.8 7.7 7.4 7.0 6.8 6.7 6.5 6.4 6.4 6.3 6.1 5.8 5.8 6.0 6.2 6.1 6.0 5.9 5.7 5.5 4.9 5.1 5.1 5.1 5.1 5.1 5.2 5.4 5.8 6.0 6.2 6.4 6.5 6.4 6.6 6.7 6.9 7.0 7.3 7.5 7.7
5.8 6.0 6.3 6.4 6.6 6.8 7.1 7.5 7.7 7.9 8.2 8.1 8.0 7.8 7.6 7.5 7.2 6.8 6.7 6.7 6.5 6.4 6.1 5.9 5.5 5.7 5.8 5.8 5.8 5.8 5.3 5.2 5.4 5.8 5.3 5.1 5.0 5.2 5.2 5.3 5.4 5.7 5.9 6.2 6.4 6.5 6.7 6.7 6.7 6.9 7.0 7.3 7.2 7.2
6.4 6.6 6.7 6.8 7.1 7.4 7.5 7.9 8.0 8.1 8.2 8.1 8.1 7.7 7.5 7.5 7.2 7.1 7.1 7.0 6.6 6.1 6.0 5.7 5.9 5.9 5.7 5.7 5.3 5.3 5.3 5.0 5.2 5.7 5.5 5.2 5.1 5.1 5.3 5.5 5.6 5.8 5.9 6.1 6.3 6.5 6.6 6.6 6.7 7.0 7.4 7.2 7.0 6.8
6.8 7.0 7.3 7.5 7.6 7.7 7.9 8.1 8.2 8.2 8.0 7.9 7.9 7.5 7.4 7.4 7.4 7.5 7.5 7.2 6.6 6.4 6.2 5.8 5.8 5.8 5.5 5.4 5.3 5.3 5.1 5.1 5.1 5.0 5.1 5.5 5.2 5.3 5.5 5.6 5.6 5.7 5.9 6.1 6.2 6.3 6.4 6.4 6.5 6.5 6.6 6.5 6.4 6.5
7.3 7.4 7.5 7.6 7.7 7.6 7.8 8.2 8.3 8.2 8.0 8.0 7.9 7.5 7.4 7.5 7.6 7.7 7.5 7.0 6.6 6.4 5.8 5.7 5.7 5.7 5.7 5.4 5.3 5.2 5.3 5.2 5.1 5.0 4.9 5.0 5.3 5.4 5.5 5.5 5.6 5.8 6.0 6.0 6.1 6.1 6.1 6.0 6.0 5.9 5.9 5.9 5.9 5.9
7.1 7.1 7.3 7.4 7.6 7.9 8.4 8.5 8.3 8.1 7.9 7.9 7.8 7.6 7.4 7.4 7.6 7.3 6.8 6.6 6.2 5.8 5.6 5.7 5.8 5.7 5.7 5.5 5.4 5.2 5.3 5.3 5.2 5.2 5.2 5.2 5.2 5.4 5.5 5.5 5.7 5.9 5.9 5.8 5.7 5.7 5.7 5.7 5.7 5.7 5.7 5.8 5.8 5.8
7.0 7.2 7.4 7.8 8.2 8.3 8.5 8.4 8.2 8.1 8.1 7.8 7.6 7.4 7.4 7.5 7.3 6.9 6.6 6.3 6.0 5.7 5.8 5.8 5.9 5.9 5.6 5.4 5.3 5.3 5.4 5.3 5.2 5.2 5.2 5.2 5.3 5.4 5.4 5.5 5.7 5.8 5.7 5.5 5.5 5.5 5.6 5.6 5.5 5.6 5.6 5.6 5.5 5.4
7.5 7.7 8.0 8.2 8.3 8.5 8.5 8.4 8.3 8.1 7.8 7.5 7.5 7.6 7.5 7.2 6.9 6.6 6.5 6.2 6.0 5.8 5.7 5.8 6.0 5.8 5.5 5.3 5.3 5.3 5.3 5.2 5.2 5.2 5.2 5.2 5.3 5.4 5.4 5.6 5.6 5.6 5.5 5.5 5.4 5.5 5.5 5.5 5.4 5.4 5.4 5.5 5.5 5.3
7.8 8.1 8.2 8.4 8.4 8.3 8.1 8.1 8.1 7.9 7.7 7.5 7.5 7.4 7.1 6.8 6.6 6.6 6.3 6.0 5.8 5.8 5.9 5.9 5.7 5.4 5.3 5.3 5.4 5.3 5.3 5.2 5.1 5.2 5.3 5.2 5.2 5.3 5.5 5.5 5.5 5.5 5.4 5.2 5.3 5.3 5.2 5.1 5.1 5.1 5.2 5.3 4.9 5.0
7.9 8.0 8.3 8.3 8.2 8.0 7.9 8.1 8.0 7.8 7.6 7.5 7.4 7.2 6.9 6.7 6.6 6.4 6.0 6.0 5.8 5.9 5.9 5.7 5.5 5.4 5.3 5.3 5.3 5.3 5.2 5.0 5.0 5.0 5.2 5.2 5.2 5.1 5.2 5.2 5.2 5.3 4.8 4.9 5.0 5.1 5.2 5.2 4.9 4.7 5.0 5.1 5.0 5.0
7.9 8.1 8.3 8.4 8.4 8.4 8.3 8.3 8.2 7.9 7.7 7.4 7.2 6.9 6.7 6.7 6.4 6.1 6.0 5.9 5.8 5.8 5.8 5.6 5.4 5.4 5.4 5.4 5.3 5.3 5.1 5.0 4.9 4.9 4.9 4.9 4.9 4.9 4.9 5.0 5.0 4.8 4.9 5.0 4.8 4.5 4.3 4.8 5.1 5.3 5.3 5.3 5.2 5.1
8.1 8.1 8.1 8.4 8.5 8.5 8.5 8.4 8.2 7.9 7.6 7.3 7.1 6.9 6.6 6.5 6.3 6.1 6.0 5.9 5.7 5.7 5.7 5.5 5.4 5.3 5.4 5.4 5.3 5.2 5.0 4.9 4.9 4.8 4.8 5.0 4.9 4.9 4.9 4.8 4.7 4.4 4.4 4.6 4.7 4.8 4.8 4.9 5.1 5.1 5.1 5.1 5.1 5.1
8.1 8.2 8.3 8.5 8.5 8.5 8.4 8.2 8.0 7.8 7.6 7.3 7.1 7.1 6.9 6.6 6.4 6.2 6.0 5.8 5.7 5.6 5.5 5.5 5.4 5.4 5.4 5.4 5.3 5.2 5.0 4.9 4.9 4.9 4.7 4.7 4.6 4.4 3.9 4.0 4.3 4.7 4.9 5.0 5.1 5.0 4.9 5.0 5.0 5.0 5.0 5.0 5.0 5.1
8.1 8.1 8.3 8.3 8.4 8.4 8.2 8.0 7.9 7.7 7.5 7.3 7.1 7.0 6.8 6.5 6.4 6.2 6.0 5.8 5.6 5.6 5.5 5.4 5.4 5.4 5.3 5.4 5.3 5.2 5.0 4.9 5.0 4.4 4.0 3.9 4.0 4.0 4.2 4.5 4.7 4.9 4.9 4.9 5.0 5.0 4.9 4.9 4.8 4.8 4.9 5.0 5.1 5.2
8.0 8.0 8.0 8.1 8.1 8.1 7.9 7.9 7.8 7.7 7.5 7.3 7.1 6.9 6.8 6.5 6.4 6.2 5.9 5.8 5.6 5.6 5.5 5.5 5.4 5.4 5.3 5.3 5.3 5.2 5.0 4.8 4.7 4.5 4.4 4.2 4.2 4.4 4.6 4.7 4.8 4.7 4.8 4.8 4.8 4.8 4.7 4.7 4.8 4.7 4.8 4.9 5.0 5.2
7.8 7.8 7.8 7.9 7.9 7.9 7.8 7.7 7.8 7.7 7.6 7.4 7.2 6.9 6.7 6.6 6.4 6.2 5.9 5.7 5.7 5.6 5.5 5.4 5.5 5.4 5.4 5.3 5.2 5.0 4.9 4.7 4.5 4.2 4.4 4.4 4.5 4.6 4.6 4.7 4.7 4.6 4.5 4.6 4.7 4.7 4.7 4.8 4.9 4.9 4.9 5.1 5.1 5.2
Wind_Speed
32 32 30 27 26 25 23 21 18 16 12 11 11 10 9 7 7 5 2 6 2 2 3 2 2 1 1 1 1 2 2 1 2 1 3 4 3 4 5 6 8 5 4 4 5 5 8 8 2 2 2 5 5 3
29 27 29 29 26 25 23 22 19 16 14 13 11 9 7 5 4 4 2 3 4 1 2 2 3 5 4 4 2 1 2 3 2 2 3 4 3 3 6 4 6 4 4 5 4 2 5 9 2 4 3 2 5 5
26 23 20 21 24 24 21 19 18 16 14 12 10 8 5 4 4 4 2 1 1 2 2 2 3 3 4 3 3 2 3 2 2 1 2 3 3 3 3 4 6 7 9 6 8 2 7 9 9 8 3 4 5 5
27 25 24 22 20 19 19 19 17 15 12 10 9 7 6 5 5 3 2 1 1 1 1 1 2 2 4 5 6 6 4 3 1 1 1 2 1 2 4 7 8 6 9 9 17 17 17 21 15 12 12 4 5 4
23 22 21 19 19 18 18 17 16 14 13 11 9 7 5 5 4 4 6 2 5 2 2 4 7 4 4 7 5 6 6 4 2 1 2 3 3 4 5 7 11 8 16 13 17 16 15 16 13 13 14 15 8 6
25 23 20 19 18 18 18 16 16 14 12 10 8 6 5 5 6 2 2 3 3 1 1 3 3 2 3 1 4 5 4 3 3 2 3 4 6 3 4 7 14 20 16 19 20 20 22 22 22 18 16 15 16 14
23 21 20 19 18 17 16 16 14 12 11 8 7 6 5 6 3 2 2 2 7 2 1 3 3 2 0 1 1 2 4 3 3 3 3 7 10 7 8 15 31 19 17 18 19 19 25 25 20 16 18 20 21 16
20 19 18 18 19 18 16 14 12 10 8 6 5 6 6 9 9 3 4 4 4 1 1 1 3 2 2 2 2 3 2 2 3 3 3 5 4 5 6 11 13 14 13 12 13 15 16 16 17 20 22 21 20 13
20 19 18 18 18 17 15 12 10 9 8 7 8 13 4 2 2 2 3 2 2 1 1 2 1 2 1 3 2 2 1 2 3 4 3 2 3 6 8 8 16 20 17 21 21 16 19 20 18 20 19 18 16 15
18 18 18 18 17 15 13 11 12 10 12 12 2 1 2 1 2 2 1 1 1 1 1 2 2 2 2 2 2 1 2 3 2 4 2 3 5 10 8 10 15 17 17 19 18 17 15 17 16 18 20 19 15 12
18 19 19 18 16 13 13 13 13 12 5 1 1 2 2 1 1 1 1 1 1 2 2 3 1 1 2 1 3 2 2 2 3 2 2 2 3 3 5 11 13 15 15 17 18 21 18 19 17 17 16 17 14 12
21 20 18 16 14 13 12 12 8 3 2 4 4 3 1 1 2 3 1 1 2 2 1 1 2 2 3 1 1 3 3 2 5 2 3 2 2 6 13 16 16 15 18 18 19 19 19 18 17 17 15 13 10 9
20 18 16 13 12 10 10 9 8 15 8 2 3 3 2 2 3 3 3 3 1 2 2 1 2 1 3 1 3 2 3 4 2 3 3 1 7 12 15 18 18 17 18 19 18 18 18 18 15 15 13 11 6 5
17 15 13 11 9 8 8 10 13 4 2 2 2 2 3 1 3 3 1 1 0 1 0 1 1 2 2 1 2 2 4 2 3 3 1 4 15 17 18 17 17 20 21 16 18 18 18 8 3 8 10 6 7 7
14 12 10 8 7 6 7 11 10 2 1 2 3 2 4 3 0 1 1 1 2 1 1 2 1 1 2 2 2 3 3 4 3 3 3 10 16 19 19 18 18 19 15 15 15 14 14 7 4 5 3 4 6 5
12 9 3 6 4 4 11 12 4 1 2 1 2 2 1 1 2 1 2 2 2 1 2 2 1 2 4 3 3 5 3 3 3 4 8 12 17 17 18 18 18 15 14 13 12 11 8 7 6 5 8 7 7 7
6 1 3 7 9 13 8 3 2 2 2 3 3 3 2 1 3 2 3 2 1 1 2 2 1 7 2 3 3 2 2 4 7 9 10 15 16 18 17 17 18 13 13 11 9 8 6 5 4 7 10 8 10 10
2 5 11 15 9 4 2 2 0 2 3 3 3 1 2 1 1 1 2 1 2 1 2 4 0 1 4 3 3 2 3 7 8 10 12 14 16 16 13 17 14 12 11 10 7 7 5 5 5 6 9 9 11 11
5 9 10 9 4 3 2 1 2 2 3 0 2 0 1 2 2 1 1 1 0 1 1 0 3 3 3 2 2 5 7 8 11 12 12 13 12 14 15 15 8 7 8 8 6 4 4 7 5 4 5 6 7 7
11 7 5 9 3 2 2 1 1 1 1 1 1 1 2 2 1 1 2 3 2 2 3 3 4 3 0 1 1 5 7 8 9 11 12 10 10 13 11 11 6 6 4 5 5 9 5 6 6 6 6 7 8 8
7 3 6 4 2 3 2 1 0 1 2 1 1 1 3 2 3 2 2 2 3 3 3 2 1 1 2 2 3 5 8 7 8 8 11 12 11 8 8 7 6 4 3 3 3 5 8 6 5 6 8 9 9 9
2 5 2 1 2 2 3 2 1 1 0 1 1 1 2 2 2 1 0 1 2 1 1 2 2 2 6 7 8 8 10 11 10 9 14 13 8 6 6 5 4 4 4 4 4 5 5 5 6 8 9 9 11 10
6 2 2 1 2 3 3 0 1 2 1 2 2 2 2 2 1 0 2 2 1 1 1 1 2 4 7 10 9 9 8 9 8 8 8 6 6 4 5 4 4 4 4 5 5 5 7 13 12 9 10 11 11 11
6 3 2 2 2 2 1 2 1 2 2 2 1 4 3 1 1 2 2 1 1 1 2 3 5 6 5 6 5 6 7 7 7 7 4 5 4 3 4 4 4 5 4 4 5 6 7 8 13 10 10 12 12 12
2 1 3 2 2 3 1 2 3 2 1 1 2 3 1 2 2 2 1 1 2 1 2 5 5 5 6 6 6 7 8 6 6 6 4 6 4 0 2 4 6 6 4 6 7 8 9 9 10 11 12 13 15 15
1 2 3 3 1 3 3 0 2 3 0 2 4 3 1 2 2 2 1 2 2 2 4 6 6 7 6 5 7 7 8 6 5 4 4 6 5 3 3 4 5 6 6 5 7 10 12 11 13 16 14 17 21 15
2 3 1 1 1 2 2 2 2 1 0 2 2 2 1 2 2 1 1 1 2 3 5 6 5 6 7 8 7 6 6 3 3 3 4 5 6 6 5 5 6 3 6 8 8 10 12 12 12 12 13 11 10 10
2 1 4 2 2 1 3 0 3 3 3 1 2 1 2 2 1 1 1 2 4 5 6 6 5 5 6 6 7 6 4 3 3 2 2 6 8 7 7 6 7 17 10 9 9 9 10 11 11 12 12 11 9 8
2 0 3 2 2 0 3 4 3 1 1 1 2 2 2 1 0 1 2 3 4 4 5 6 6 6 5 5 4 4 4 3 4 5 6 5 5 7 5 6 7 7 8 11 21 16 15 12 11 11 12 10 8 8
1 2 2 2 3 3 3 1 1 1 1 1 1 2 1 1 0 1 2 3 4 5 5 5 5 5 6 6 6 5 6 5 4 2 3 3 3 3 4 6 8 8 8 10 11 13 20 14 14 10 10 9 8 8
1 1 2 1 1 0 0 2 2 2 1 1 2 1 2 2 1 1 1 3 4 4 4 6 6 5 5 6 5 5 4 6 6 7 7 5 5 5 5 6 6 6 7 8 8 8 9 10 9 10 10 11 11 9
2 2 2 0 2 2 2 2 0 1 2 1 1 1 2 1 1 1 2 4 3 4 7 7 6 5 7 5 4 2 5 2 3 4 6 5 5 5 5 5 6 6 8 9 9 9 11 11 9 9 9 10 8 8
2 1 2 2 3 2 2 2 3 3 2 1 1 1 1 1 2 1 1 1 2 3 5 6 6 6 7 7 4 3 4 1 8 14 14 14 14 11 8 7 7 8 10 9 9 9 11 13 10 10 9 9 8 7
Wind_Direction
161 151 144 155 149 154 155 156 158 152 144 130 120 109 96 80 49 46 67 21 24 19 113 56 7 302 144 264 260 73 347 9 302 263 256 245 245 252 259 249 241 210 205 191 212 235 256 344 86 224 78 41 40 34
146 150 156 158 161 162 162 164 158 151 144 133 123 113 106 102 86 22 100 25 5 26 39 43 306 298 297 16 27 145 304 345 318 343 350 335 345 338 331 288 333 285 229 264 259 251 316 334 101 126 69 15 313 300
144 143 147 162 167 165 153 148 148 144 134 131 128 127 127 112 104 39 81 31 8 35 277 173 222 243 223 257 258 194 261 183 306 358 313 282 267 354 285 276 326 324 327 303 314 337 297 309 315 318 265 261 279 19
132 132 125 122 127 131 137 140 139 139 139 132 135 134 118 108 126 89 76 63 356 58 331 247 139 181 189 206 212 235 272 322 304 92 240 249 280 249 238 262 260 262 313 304 286 284 293 286 278 275 289 274 329 320
120 119 121 126 130 133 139 141 142 142 133 126 121 120 122 123 125 101 82 55 14 35 340 314 316 24 63 191 213 231 240 256 251 302 222 237 239 255 256 266 261 253 254 250 257 261 266 276 290 299 303 302 292 293
134 132 132 136 141 148 147 145 141 132 130 129 130 128 131 136 139 184 157 58 65 118 28 305 349 40 70 341 288 231 227 237 212 190 221 226 232 273 275 261 263 250 254 251 261 261 262 268 275 278 284 290 294 290
130 133 137 140 142 139 139 139 135 135 134 134 135 137 132 126 78 37 49 110 149 117 114 300 292 138 150 321 222 224 223 222 203 232 220 239 248 250 262 264 267 278 274 273 271 275 275 273 273 271 258 258 262 264
133 138 143 144 143 140 136 136 134 131 133 140 155 158 127 120 119 95 55 107 171 86 36 282 274 310 348 302 293 190 212 174 243 230 276 250 252 202 245 257 273 278 283 282 290 291 292 291 283 261 260 261 262 264
140 140 140 140 139 137 138 133 131 130 137 144 138 124 114 32 65 79 78 233 190 347 283 212 239 290 235 245 235 319 135 273 232 205 215 236 213 222 257 304 321 311 303 293 292 283 278 272 272 265 268 262 249 249
138 140 137 139 136 134 131 135 128 120 116 109 101 180 122 75 18 111 148 181 196 151 212 255 50 282 38 311 278 302 180 228 259 227 158 217 244 255 329 304 287 295 296 293 287 290 284 272 270 263 254 246 245 232
137 137 135 132 129 132 136 127 122 116 105 53 63 63 78 142 208 350 86 60 12 317 216 232 253 269 324 199 257 231 265 279 270 214 238 238 223 158 228 309 303 295 294 285 284 280 274 271 266 261 261 247 230 222
128 129 129 128 129 129 127 127 125 68 40 87 112 95 118 42 36 87 120 33 218 257 149 201 249 212 276 357 284 271 244 246 253 155 248 241 97 326 329 319 316 308 306 296 292 287 284 272 256 248 246 249 212 203
126 126 124 126 130 137 137 129 112 123 119 85 61 67 64 325 54 148 223 283 288 191 237 285 326 223 341 279 274 280 263 242 331 231 237 111 345 330 327 334 323 314 308 304 307 305 295 278 243 224 233 224 225 181
123 124 125 124 128 143 151 141 142 113 76 83 106 4 149 220 243 196 232 127 29 31 348 34 284 191 233 303 249 262 255 295 264 244 15 355 333 327 330 327 322 318 317 321 321 318 321 343 109 185 214 194 190 205
126 126 125 124 123 133 164 160 152 64 90 106 80 212 214 228 253 93 64 351 227 217 37 343 306 172 271 265 228 279 252 249 263 0 338 326 324 328 326 325 320 319 322 329 328 326 330 356 46 78 125 159 137 141
129 125 122 142 126 147 124 112 51 57 64 120 219 260 185 34 255 106 186 242 233 179 92 66 261 314 257 219 228 222 252 269 10 339 318 319 325 322 321 319 316 316 325 325 326 325 336 0 24 57 51 52 70 92
124 81 154 175 125 109 79 84 102 132 211 209 238 234 272 293 221 230 147 226 65 116 193 118 164 228 309 268 265 259 323 343 331 319 319 318 316 315 314 312 317 324 325 325 327 335 348 3 36 72 77 67 76 79
69 130 127 128 114 80 49 37 221 212 246 234 238 236 208 243 320 262 212 151 129 212 98 215 158 227 229 241 280 10 325 322 318 315 310 309 309 307 312 313 312 325 325 332 331 340 5 33 67 82 90 93 92 88
144 149 139 132 111 99 112 40 0 220 223 302 301 105 258 270 279 163 32 64 124 348 328 173 250 226 238 289 342 326 325 317 309 308 302 303 304 313 310 309 310 318 329 338 348 358 27 47 54 63 83 91 92 93
103 87 138 124 61 90 59 341 351 248 257 265 336 278 253 257 24 287 246 204 179 183 200 221 225 242 164 316 346 298 296 297 300 305 306 312 318 313 316 315 324 324 336 346 7 35 40 55 52 67 74 82 88 84
80 107 65 62 52 57 57 51 319 347 325 281 340 325 274 268 271 251 260 179 221 214 235 237 358 330 2 278 276 283 292 295 295 292 300 306 312 314 317 328 327 334 346 9 26 48 54 55 57 69 77 74 78 82
98 127 104 21 108 98 75 354 4 350 134 242 341 11 284 282 262 167 90 216 243 260 42 356 334 333 318 311 306 299 292 290 294 294 303 300 308 323 331 335 340 11 22 28 44 67 70 72 79 81 83 85 81 82
109 73 57 99 84 53 256 333 43 4 29 295 4 338 281 275 216 357 257 212 245 63 303 309 304 274 283 291 293 293 296 303 305 306 301 311 309 337 331 345 358 30 48 44 44 62 75 80 82 85 86 84 86 83
49 55 86 78 57 212 23 10 11 6 3 4 3 296 306 295 337 245 263 104 58 301 358 338 323 317 313 311 307 308 315 308 308 306 314 325 328 357 356 6 25 39 42 59 67 72 75 81 86 84 85 86 80 80
106 15 93 345 332 67 49 359 346 30 269 256 15 306 331 332 273 261 282 60 334 345 344 334 323 315 304 300 304 310 313 316 320 309 349 335 319 69 36 43 45 39 41 79 77 81 77 80 80 81 80 83 87 83
174 293 120 185 245 134 196 165 213 227 137 324 240 264 313 297 273 276 38 342 321 324 342 328 319 311 306 303 308 317 322 339 333 352 345 344 346 16 48 56 61 39 25 67 93 92 87 83 83 84 83 85 92 93
191 245 231 290 48 98 67 40 11 109 189 214 271 330 333 275 269 49 13 48 320 319 311 301 295 290 295 306 306 302 305 316 11 1 342 5 34 43 48 66 61 40 56 72 82 90 95 91 88 88 88 78 74 83
143 58 168 217 60 26 151 103 165 207 234 243 47 282 226 237 285 342 316 343 317 308 302 295 297 299 304 298 295 296 306 308 254 191 81 45 42 40 45 70 86 87 82 72 74 80 86 91 93 92 90 87 79 67
83 100 104 66 8 132 200 183 214 169 21 94 163 273 276 323 255 334 326 322 315 310 319 332 336 331 325 327 321 335 345 28 50 54 64 59 53 42 36 63 73 79 86 90 88 88 87 89 90 89 89 88 86 82
270 346 93 95 149 227 231 84 198 296 290 233 291 302 281 283 151 44 320 332 339 330 322 320 324 332 342 346 342 5 29 17 6 31 105 92 73 40 47 71 76 76 82 87 92 94 90 85 88 82 80 79 79 81
28 33 57 84 207 272 273 330 307 266 352 295 255 233 278 310 139 74 359 329 313 309 330 350 340 340 348 350 349 351 14 17 21 61 79 80 79 76 72 75 79 82 85 88 91 93 95 86 83 85 82 83 86 86
14 78 124 90 290 296 20 35 332 309 305 309 227 212 278 258 254 74 1 347 337 357 348 347 336 328 325 320 320 0 70 26 37 65 67 77 79 72 76 79 84 91 93 91 90 90 87 91 92 90 88 84 81 78
39 30 14 58 15 6 328 52 20 339 333 291 303 344 331 323 298 338 323 70 306 308 318 318 307 303 307 309 17 45 65 93 111 104 106 107 107 101 86 85 90 92 92 92 92 94 92 95 93 91 89 89 87 85